Hourly Weather Daleszynek

Today, 17 April, Saturday

Time Temperature Precipitation Wind Pressure Humidity
00:00 +3°C° 0.1 mm 3 mps 756 mmHg 92%
01:00 +2°C° 0.1 mm 3 mps 756 mmHg 92%
02:00 +2°C° 0 mm 3 mps 756 mmHg 92%
03:00 +4°C° 0 mm 2 mps 755 mmHg 93%
04:00 +4°C° 0 mm 2 mps 755 mmHg 93%
05:00 +4°C° 0 mm 2 mps 755 mmHg 93%
06:00 +4°C° 0 mm 2 mps 756 mmHg 93%
07:00 +4°C° 0 mm 2 mps 756 mmHg 93%
08:00 +6°C° 0.1 mm 2 mps 756 mmHg 90%
09:00 +7°C° 0.1 mm 2 mps 756 mmHg 87%
10:00 +8°C° 0.1 mm 2 mps 755 mmHg 84%
11:00 +9°C° 0.2 mm 2 mps 755 mmHg 80%
12:00 +12°C° 0.2 mm 2 mps 755 mmHg 75%
13:00 +13°C° 0.2 mm 2 mps 755 mmHg 70%
14:00 +13°C° 0.6 mm 2 mps 755 mmHg 70%
15:00 +13°C° 0.6 mm 2 mps 755 mmHg 70%
16:00 +13°C° 0.6 mm 2 mps 754 mmHg 70%
17:00 +12°C° 0.3 mm 2 mps 755 mmHg 76%
18:00 +10°C° 0.3 mm 2 mps 755 mmHg 81%
19:00 +8°C° 0.3 mm 2 mps 755 mmHg 87%
20:00 +8°C° 0.1 mm 2 mps 755 mmHg 88%
21:00 +8°C° 0.1 mm 1 mps 755 mmHg 90%
22:00 +8°C° 0.1 mm 1 mps 755 mmHg 92%
23:00 +7°C° 0 mm 1 mps 755 mmHg 93%

Tomorrow, 18 April, Sunday

Time Temperature Precipitation Wind Pressure Humidity
00:00 +7°C° 0 mm 1 mps 756 mmHg 94%
01:00 +6°C° 0 mm 1 mps 756 mmHg 94%
02:00 +6°C° 0 mm 1 mps 756 mmHg 95%
03:00 +6°C° 0 mm 1 mps 755 mmHg 95%
04:00 +6°C° 0 mm 1 mps 755 mmHg 95%
05:00 +7°C° 0 mm 1 mps 755 mmHg 93%
06:00 +8°C° 0 mm 1 mps 756 mmHg 91%
07:00 +8°C° 0 mm 2 mps 756 mmHg 89%
08:00 +9°C° 0.1 mm 2 mps 756 mmHg 85%
09:00 +10°C° 0.1 mm 3 mps 756 mmHg 81%
10:00 +11°C° 0.1 mm 3 mps 756 mmHg 77%
11:00 +12°C° 0.4 mm 3 mps 755 mmHg 71%
12:00 +13°C° 0.4 mm 4 mps 755 mmHg 66%
13:00 +14°C° 0.4 mm 4 mps 755 mmHg 61%
14:00 +14°C° 0.3 mm 4 mps 755 mmHg 62%
15:00 +14°C° 0.3 mm 3 mps 755 mmHg 62%
16:00 +13°C° 0.3 mm 3 mps 755 mmHg 63%
17:00 +12°C° 0.1 mm 3 mps 755 mmHg 71%
18:00 +10°C° 0.1 mm 2 mps 755 mmHg 79%
19:00 +9°C° 0.1 mm 2 mps 755 mmHg 88%
20:00 +9°C° 0 mm 2 mps 755 mmHg 89%
21:00 +9°C° 0 mm 2 mps 755 mmHg 91%
22:00 +8°C° 0 mm 2 mps 756 mmHg 92%
23:00 +8°C° 0 mm 2 mps 755 mmHg 93%

Day after tomorrow, 19 April, Monday

Time Temperature Precipitation Wind Pressure Humidity
00:00 +8°C° 0 mm 2 mps 755 mmHg 95%
01:00 +8°C° 0 mm 2 mps 755 mmHg 96%
02:00 +8°C° 0.1 mm 2 mps 755 mmHg 96%
03:00 +8°C° 0.1 mm 2 mps 755 mmHg 96%
04:00 +8°C° 0.1 mm 2 mps 755 mmHg 97%
05:00 +8°C° 0.2 mm 2 mps 755 mmHg 94%
06:00 +9°C° 0.2 mm 2 mps 755 mmHg 92%
07:00 +9°C° 0.2 mm 3 mps 755 mmHg 90%
08:00 +11°C° 0.1 mm 3 mps 755 mmHg 81%
09:00 +12°C° 0.1 mm 3 mps 755 mmHg 72%
10:00 +13°C° 0.1 mm 4 mps 755 mmHg 62%
11:00 +14°C° 0.1 mm 4 mps 754 mmHg 59%
12:00 +14°C° 0.1 mm 5 mps 754 mmHg 56%
13:00 +15°C° 0.1 mm 5 mps 754 mmHg 53%
14:00 +15°C° 0 mm 5 mps 754 mmHg 53%
15:00 +14°C° 0 mm 5 mps 754 mmHg 53%
16:00 +14°C° 0 mm 5 mps 753 mmHg 53%
17:00 +13°C° 0 mm 4 mps 753 mmHg 60%
18:00 +11°C° 0 mm 4 mps 753 mmHg 67%
19:00 +10°C° 0 mm 3 mps 753 mmHg 74%
20:00 +9°C° 0 mm 3 mps 753 mmHg 75%
21:00 +9°C° 0 mm 3 mps 754 mmHg 75%
22:00 +9°C° 0 mm 3 mps 754 mmHg 76%
23:00 +9°C° 0 mm 2 mps 753 mmHg 77%

20 April, Tuesday

Time Temperature Precipitation Wind Pressure Humidity
00:00 +8°C° 0 mm 2 mps 753 mmHg 78%
01:00 +8°C° 0 mm 2 mps 753 mmHg 79%
02:00 +8°C° 0 mm 2 mps 753 mmHg 81%
03:00 +7°C° 0 mm 2 mps 753 mmHg 84%
04:00 +7°C° 0 mm 2 mps 753 mmHg 87%
05:00 +7°C° 0 mm 2 mps 753 mmHg 85%
06:00 +8°C° 0 mm 2 mps 753 mmHg 84%
07:00 +8°C° 0 mm 3 mps 753 mmHg 82%
08:00 +8°C° 0.1 mm 3 mps 752 mmHg 79%
09:00 +9°C° 0.1 mm 3 mps 752 mmHg 76%
10:00 +10°C° 0.1 mm 3 mps 752 mmHg 73%
11:00 +10°C° 0.1 mm 3 mps 752 mmHg 69%
12:00 +12°C° 0.1 mm 2 mps 752 mmHg 65%
13:00 +12°C° 0.1 mm 2 mps 752 mmHg 61%
14:00 +13°C° 0 mm 2 mps 751 mmHg 59%
15:00 +13°C° 0 mm 2 mps 751 mmHg 57%
16:00 +13°C° 0 mm 2 mps 751 mmHg 55%
17:00 +12°C° 0 mm 2 mps 751 mmHg 60%
18:00 +10°C° 0 mm 2 mps 751 mmHg 65%
19:00 +9°C° 0 mm 1 mps 751 mmHg 70%
20:00 +9°C° 0 mm 1 mps 750 mmHg 71%
21:00 +8°C° 0 mm 1 mps 750 mmHg 73%
22:00 +8°C° 0 mm 1 mps 750 mmHg 74%
23:00 +7°C° 0 mm 0 mps 750 mmHg 74%

21 April, Wednesday

Time Temperature Precipitation Wind Pressure Humidity
00:00 +7°C° 0 mm 0 mps 750 mmHg 73%
01:00 +7°C° 0 mm 0 mps 750 mmHg 73%
02:00 +7°C° 0 mm 0 mps 750 mmHg 73%
03:00 +7°C° 0 mm 0 mps 749 mmHg 72%
04:00 +8°C° 0 mm 1 mps 749 mmHg 72%
05:00 +8°C° 0 mm 1 mps 749 mmHg 72%
06:00 +9°C° 0 mm 1 mps 749 mmHg 72%
07:00 +9°C° 0 mm 1 mps 749 mmHg 72%
08:00 +9°C° 0.1 mm 2 mps 749 mmHg 69%
09:00 +10°C° 0.1 mm 2 mps 749 mmHg 67%
10:00 +11°C° 0.1 mm 3 mps 749 mmHg 65%
11:00 +12°C° 0.3 mm 3 mps 748 mmHg 62%
12:00 +13°C° 0.3 mm 3 mps 748 mmHg 59%
13:00 +13°C° 0.3 mm 3 mps 748 mmHg 57%
14:00 +14°C° 0.2 mm 3 mps 747 mmHg 54%
15:00 +15°C° 0.2 mm 2 mps 747 mmHg 52%
16:00 +15°C° 0.2 mm 2 mps 747 mmHg 50%
17:00 +14°C° 0.1 mm 2 mps 747 mmHg 59%
18:00 +12°C° 0.1 mm 2 mps 747 mmHg 69%
19:00 +10°C° 0.1 mm 2 mps 747 mmHg 78%
20:00 +9°C° 0.3 mm 3 mps 747 mmHg 82%
21:00 +9°C° 0.3 mm 3 mps 747 mmHg 85%
22:00 +7°C° 0.3 mm 4 mps 747 mmHg 89%
23:00 +6°C° 1.2 mm 4 mps 748 mmHg 89%

22 April, Thursday

Time Temperature Precipitation Wind Pressure Humidity
00:00 +5°C° 1.2 mm 5 mps 748 mmHg 89%
01:00 +3°C° 1.2 mm 5 mps 748 mmHg 90%
02:00 +3°C° 0 mm 5 mps 749 mmHg 89%
03:00 +2°C° 0 mm 5 mps 749 mmHg 88%
04:00 +2°C° 0 mm 5 mps 750 mmHg 87%
05:00 +2°C° 0 mm 5 mps 750 mmHg 85%
06:00 +2°C° 0 mm 5 mps 751 mmHg 83%
07:00 +2°C° 0 mm 5 mps 751 mmHg 81%
08:00 +3°C° 0.1 mm 5 mps 752 mmHg 73%
09:00 +5°C° 0.1 mm 5 mps 752 mmHg 65%
10:00 +6°C° 0.1 mm 5 mps 752 mmHg 58%
11:00 +6°C° 0.1 mm 5 mps 752 mmHg 53%
12:00 +7°C° 0.1 mm 5 mps 752 mmHg 47%
13:00 +8°C° 0.1 mm 5 mps 752 mmHg 42%
14:00 +8°C° 0 mm 5 mps 753 mmHg 43%
15:00 +8°C° 0 mm 5 mps 753 mmHg 43%
16:00 +8°C° 0 mm 5 mps 753 mmHg 44%
17:00 +7°C° 0 mm 4 mps 753 mmHg 52%
18:00 +7°C° 0 mm 3 mps 753 mmHg 59%
19:00 +5°C° 0 mm 3 mps 754 mmHg 66%
20:00 +4°C° 0 mm 3 mps 754 mmHg 73%
21:00 +3°C° 0 mm 3 mps 754 mmHg 80%
22:00 +3°C° 0 mm 3 mps 754 mmHg 87%
23:00 +3°C° 0 mm 3 mps 755 mmHg 87%
Show more